EW9824 Weather Reports


time (UTC)temp
F
wind
direction
speed
knots
gust
knots
rain 1hr
in
rain 24hr
in
rain mn
in
humidity
%
barometer
mb
20210920044542 52 165 0.0 0.0 0.01 0.04 0.04 89 1026.4
20210920043037 51 38 1.7 0.0 0.01 0.04 0.04 90 1026.0
20210920041538 51 263 0.9 0.0 0.01 0.04 0.04 90 1026.0
20210920040031 51 79 1.7 0.0 0.00 0.03 0.03 88 1025.7
20210920034529 52 38 0.0 0.0 0.00 0.03 0.03 87 1025.7
20210920033029 52 357 1.7 0.0 0.00 0.04 0.03 85 1025.3
20210920031541 53 143 0.9 0.0 0.00 0.06 0.03 83 1025.3
20210920030036 53 205 0.9 0.0 0.00 0.06 0.03 81 1025.0
20210920024533 53 197 0.9 0.0 0.00 0.07 0.03 83 1025.0
20210920023046 53 294 0.0 0.0 0.00 0.10 0.03 81 1024.6
20210920021534 53 236 0.9 0.0 0.00 0.11 0.03 81 1024.6
20210920020040 55 286 0.9 0.0 0.00 0.11 0.03 78 1024.6
20210920014534 55 228 0.0 0.0 0.00 0.12 0.03 73 1024.2
20210920013034 56 186 3.5 0.0 0.00 0.12 0.03 71 1024.2
20210920011529 57 225 1.7 0.0 0.00 0.14 0.03 71 1024.2
20210920010039 57 192 3.5 0.0 0.00 0.14 0.03 72 1024.2
20210920004536 56 189 0.0 0.0 0.00 0.15 0.03 76 1023.9
20210920003030 57 220 0.9 0.0 0.00 0.16 0.03 72 1023.9
20210920001534 57 239 2.6 0.0 0.00 0.16 0.03 71 1023.9
20210920000042 58 185 2.6 0.0 0.00 0.16 0.03 71 1023.9
20210919234545 57 234 0.9 0.0 0.00 0.16 0.03 75 1023.9
20210919233044 56 244 0.9 0.0 0.00 0.16 0.03 75 1023.5
20210919231534 56 235 2.6 0.0 0.00 0.16 0.03 74 1023.5
20210919230037 57 246 3.5 0.0 0.00 0.16 0.03 72 1023.5
20210919224530 57 269 4.3 0.0 0.00 0.16 0.03 70 1023.2
20210919223033 58 264 3.5 0.0 0.00 0.16 0.03 71 1023.2
20210919221541 58 262 1.7 0.0 0.00 0.16 0.03 72 1022.8
20210919220034 59 313 4.3 0.0 0.00 0.16 0.03 72 1022.8
20210919214541 58 304 3.5 0.0 0.01 0.16 0.03 74 1022.8
20210919213037 57 325 3.5 0.0 0.01 0.16 0.03 77 1022.8
20210919211538 56 305 2.6 0.0 0.01 0.16 0.03 79 1022.8
20210919210037 56 277 1.7 0.0 0.01 0.16 0.03 80 1022.8
20210919204537 56 278 2.6 0.0 0.00 0.15 0.02 77 1022.8
20210919203031 57 263 4.3 0.0 0.00 0.15 0.02 72 1022.8
20210919201538 59 287 5.2 0.0 0.00 0.16 0.02 70 1022.5
20210919200036 57 258 5.2 0.0 0.00 0.16 0.02 72 1022.1
20210919194540 57 267 4.3 0.0 0.00 0.16 0.02 73 1021.8
20210919193030 58 280 3.5 0.0 0.00 0.16 0.02 73 1021.4
20210919191532 59 268 4.3 0.0 0.00 0.17 0.02 72 1021.0
20210919190034 58 268 6.1 0.0 0.00 0.19 0.02 75 1021.0
20210919184538 56 267 4.3 0.0 0.00 0.19 0.02 80 1021.0
20210919183046 55 270 4.3 0.0 0.00 0.21 0.02 80 1020.7
20210919181538 54 256 5.2 0.0 0.00 0.22 0.02 82 1020.7
20210919180045 54 274 3.5 0.0 0.00 0.22 0.02 83 1020.3
20210919174534 53 256 4.3 0.0 0.00 0.22 0.02 86 1020.0
20210919173050 53 277 2.6 0.0 0.00 0.22 0.02 88 1020.0
20210919171541 52 295 3.5 0.0 0.00 0.22 0.02 93 1019.3
20210919170031 51 56 1.7 0.0 0.00 0.22 0.02 96 1018.9
20210919164533 51 348 0.0 0.0 0.00 0.22 0.02 97 1018.9
20210919163037 50 360 0.0 0.0 0.00 0.22 0.02 98 1018.6
20210919161537 50 15 0.9 0.0 0.00 0.23 0.02 98 1018.2
20210919160040 49 226 0.9 0.0 0.00 0.23 0.02 98 1018.2
20210919154533 49 206 0.0 0.0 0.00 0.24 0.02 98 1017.9
20210919153032 48 225 0.0 0.0 0.00 0.25 0.02 98 1017.5
20210919151536 48 225 0.0 0.0 0.00 0.27 0.02 98 1017.1
20210919150035 47 225 0.0 0.0 0.00 0.28 0.02 98 1017.1
20210919144532 47 225 0.0 0.0 0.00 0.32 0.02 98 1016.8
20210919143034 47 188 0.0 0.0 0.00 0.34 0.02 98 1016.4
20210919141532 47 135 0.0 0.0 0.00 0.34 0.02 98 1016.4
20210919140037 47 113 0.0 0.0 0.00 0.35 0.02 98 1016.4
20210919134533 47 20 0.0 0.0 0.01 0.35 0.02 97 1016.1
20210919133032 47 12 0.9 0.0 0.01 0.36 0.02 97 1015.7
20210919131538 47 159 0.0 0.0 0.01 0.37 0.02 97 1015.7
20210919130036 47 90 0.0 0.0 0.01 0.37 0.02 97 1015.7
20210919124529 47 105 0.0 0.0 0.00 0.36 0.01 97 1015.4
20210919123036 47 225 0.0 0.0 0.00 0.36 0.01 97 1015.0
20210919121533 47 225 0.0 0.0 0.00 0.37 0.01 97 1015.0
20210919120039 47 203 0.0 0.0 0.00 0.37 0.01 97 1015.0
20210919114534 47 169 1.7 0.0 0.00 0.37 0.01 97 1014.7
20210919113029 47 90 0.0 0.0 0.00 0.38 0.01 97 1014.7
20210919111540 47 90 0.0 0.0 0.00 0.38 0.01 96 1014.3
20210919110037 47 80 0.0 0.0 0.00 0.39 0.01 96 1014.3
20210919104540 47 352 0.9 0.0 0.00 0.39 0.01 96 1014.3
20210919103036 48 335 2.6 0.0 0.00 0.40 0.01 95 1014.3
20210919101534 48 290 0.9 0.0 0.00 0.40 0.01 95 1014.3
20210919100033 48 284 1.7 0.0 0.00 0.42 0.01 95 1013.9
20210919094539 48 8 4.3 0.0 0.00 0.44 0.01 95 1013.9
20210919093031 49 347 5.2 0.0 0.00 0.46 0.01 96 1013.9
20210919091529 48 293 1.7 0.0 0.00 0.48 0.01 97 1013.9
20210919090039 48 285 1.7 0.0 0.01 0.49 0.01 97 1013.6
20210919084536 48 139 1.7 0.0 0.01 0.49 0.01 97 1013.2
20210919083038 48 155 1.7 0.0 0.01 0.49 0.01 96 1013.6
20210919081532 48 171 2.6 0.0 0.01 0.50 0.01 96 1013.2
20210919080046 48 195 0.0 0.0 0.00 0.49 0.00 96 1012.9
20210919074539 49 127 0.9 0.0 0.00 0.49 0.00 96 1012.9
20210919073033 49 195 0.9 0.0 0.00 0.49 0.00 96 1012.9
20210919071533 49 270 0.9 0.0 0.00 0.49 0.00 96 1012.9
20210919070047 49 346 0.9 0.0 0.00 0.49 0.00 96 1012.9
20210919064536 49 52 1.7 0.0 0.00 0.49 0.49 96 1012.9
20210919063038 48 67 0.0 0.0 0.00 0.49 0.49 96 1012.9
20210919061536 49 327 0.9 0.0 0.00 0.49 0.49 96 1012.5
20210919060036 49 73 0.0 0.0 0.00 0.49 0.49 96 1012.5
20210919054534 49 118 0.9 0.0 0.00 0.49 0.49 96 1012.5
20210919053039 49 177 0.0 0.0 0.00 0.49 0.49 95 1012.9
20210919050035 49 249 0.0 0.0 0.00 0.49 0.49 95 1012.9